| time (UTC) | temp F | wind direction | speed MPH | gust MPH | rain 1hr in | rain 24hr in | rain mn in | humidity % | barometer mb |
| 20260505081906 | 53 | 54 | 1.0 | 3.0 | 0.02 | 0.07 | 0.02 | 91 | 1008.3 |
| 20260505081406 | 53 | 43 | 0.0 | 1.0 | 0.02 | 0.07 | 0.02 | 91 | 1008.3 |
| 20260505080907 | 53 | 44 | 1.0 | 3.0 | 0.02 | 0.07 | 0.02 | 91 | 1008.3 |
| 20260505080406 | 53 | 37 | 0.0 | 5.0 | 0.02 | 0.07 | 0.02 | 91 | 1008.4 |
| 20260505075906 | 53 | 55 | 0.0 | 5.0 | 0.02 | 0.07 | 0.02 | 91 | 1008.4 |
| 20260505075406 | 53 | 52 | 0.0 | 1.0 | 0.01 | 0.06 | 0.01 | 91 | 1008.5 |
| 20260505074407 | 53 | 66 | 0.0 | 2.0 | 0.01 | 0.06 | 0.01 | 91 | 1008.5 |
| 20260505073906 | 53 | 68 | 1.0 | 2.0 | 0.01 | 0.06 | 0.01 | 91 | 1008.4 |
| 20260505072907 | 53 | 63 | 0.0 | 0.0 | 0.00 | 0.06 | 0.00 | 91 | 1008.4 |
| 20260505072407 | 53 | 63 | 0.0 | 1.0 | 0.00 | 0.06 | 0.00 | 91 | 1008.5 |
| 20260505071406 | 53 | 52 | 0.0 | 1.0 | 0.00 | 0.06 | 0.00 | 91 | 1008.5 |
| 20260505070906 | 53 | 52 | 0.0 | 1.0 | 0.00 | 0.06 | 0.00 | 91 | 1008.6 |
| 20260505070406 | 53 | 52 | 0.0 | 2.0 | 0.00 | 0.06 | 0.00 | 91 | 1008.6 |
| 20260505065906 | 53 | 50 | 1.0 | 3.0 | 0.00 | 0.06 | 0.00 | 91 | 1008.5 |
| 20260505065406 | 53 | 43 | 0.0 | 2.0 | 0.00 | 0.06 | 0.00 | 91 | 1008.6 |
| 20260505064906 | 53 | 16 | 0.0 | 1.0 | 0.00 | 0.06 | 0.00 | 91 | 1008.6 |
| 20260505064406 | 53 | 341 | 1.0 | 2.0 | 0.00 | 0.06 | 0.00 | 91 | 1008.5 |
| 20260505063906 | 53 | 4 | 1.0 | 2.0 | 0.00 | 0.06 | 0.00 | 91 | 1008.6 |
| 20260505062907 | 54 | 6 | 0.0 | 0.0 | 0.00 | 0.06 | 0.00 | 91 | 1008.6 |
| 20260505062406 | 54 | 67 | 0.0 | 0.0 | 0.00 | 0.06 | 0.00 | 91 | 1008.6 |
| 20260505061906 | 54 | 60 | 0.0 | 0.0 | 0.00 | 0.06 | 0.00 | 91 | 1008.6 |
| 20260505061406 | 54 | 62 | 0.0 | 3.0 | 0.00 | 0.06 | 0.00 | 91 | 1008.6 |
| 20260505060906 | 54 | 44 | 1.0 | 3.0 | 0.00 | 0.06 | 0.00 | 91 | 1008.6 |
| 20260505060406 | 54 | 0 | 0.0 | 0.0 | 0.00 | 0.06 | 0.00 | 91 | 1008.6 |
| 20260505055906 | 54 | 49 | 2.0 | 5.0 | 0.00 | 0.06 | 0.00 | 91 | 1008.6 |
| 20260505054906 | 54 | 58 | 1.0 | 3.0 | 0.00 | 0.06 | 0.00 | 91 | 1008.6 |
| 20260505054406 | 54 | 41 | 1.0 | 3.0 | 0.00 | 0.06 | 0.00 | 91 | 1008.6 |
| 20260505053906 | 54 | 23 | 1.0 | 2.0 | 0.00 | 0.06 | 0.00 | 91 | 1008.6 |
| 20260505052906 | 54 | 24 | 0.0 | 1.0 | 0.00 | 0.06 | 0.00 | 91 | 1008.6 |
| 20260505052407 | 54 | 1 | 0.0 | 2.0 | 0.00 | 0.06 | 0.00 | 91 | 1008.6 |
| 20260505051906 | 54 | 10 | 0.0 | 1.0 | 0.00 | 0.06 | 0.00 | 91 | 1008.6 |
| 20260505050906 | 54 | 78 | 0.0 | 0.0 | 0.00 | 0.06 | 0.00 | 91 | 1008.5 |
| 20260505050406 | 54 | 88 | 0.0 | 1.0 | 0.00 | 0.06 | 0.00 | 91 | 1008.4 |
| 20260505041406 | 55 | 312 | 0.0 | 3.0 | 0.00 | 0.06 | 0.00 | 91 | 1008.6 |
| 20260505040906 | 55 | 289 | 0.0 | 3.0 | 0.00 | 0.06 | 0.00 | 91 | 1008.6 |
| 20260505040406 | 55 | 298 | 0.0 | 0.0 | 0.00 | 0.06 | 0.00 | 91 | 1008.7 |
| 20260505035906 | 55 | 284 | 0.0 | 0.0 | 0.00 | 0.06 | 0.00 | 91 | 1008.7 |
| 20260505035407 | 55 | 284 | 0.0 | 0.0 | 0.00 | 0.06 | 0.00 | 91 | 1008.7 |
| 20260505034906 | 55 | 284 | 0.0 | 0.0 | 0.00 | 0.06 | 0.00 | 91 | 1008.8 |
| 20260505034406 | 55 | 284 | 0.0 | 0.0 | 0.00 | 0.06 | 0.00 | 91 | 1008.8 |
| 20260505033906 | 55 | 284 | 0.0 | 0.0 | 0.00 | 0.06 | 0.00 | 91 | 1008.9 |
| 20260505033406 | 55 | 284 | 0.0 | 0.0 | 0.00 | 0.06 | 0.00 | 91 | 1008.9 |
| 20260505031906 | 55 | 10 | 0.0 | 1.0 | 0.00 | 0.06 | 0.00 | 91 | 1008.9 |
| 20260505031406 | 55 | 5 | 0.0 | 1.0 | 0.00 | 0.06 | 0.00 | 91 | 1008.9 |
| 20260505030906 | 55 | 5 | 0.0 | 0.0 | 0.00 | 0.06 | 0.00 | 91 | 1009.0 |
| 20260505025906 | 55 | 5 | 0.0 | 0.0 | 0.00 | 0.06 | 0.00 | 91 | 1009.1 |
| 20260505024906 | 55 | 5 | 0.0 | 1.0 | 0.00 | 0.06 | 0.00 | 91 | 1009.2 |
| 20260505023906 | 55 | 2 | 0.0 | 1.0 | 0.00 | 0.06 | 0.00 | 91 | 1009.2 |
| 20260505023405 | 55 | 24 | 1.0 | 2.0 | 0.00 | 0.06 | 0.00 | 91 | 1009.2 |
| 20260505022906 | 55 | 38 | 0.0 | 1.0 | 0.00 | 0.06 | 0.00 | 91 | 1009.2 |
| 20260505022406 | 55 | 38 | 0.0 | 0.0 | 0.00 | 0.06 | 0.00 | 91 | 1009.2 |
| 20260505021406 | 55 | 38 | 0.0 | 1.0 | 0.00 | 0.06 | 0.00 | 91 | 1009.1 |
| 20260505020907 | 55 | 43 | 0.0 | 1.0 | 0.00 | 0.06 | 0.00 | 91 | 1009.0 |
| 20260505020406 | 55 | 59 | 1.0 | 2.0 | 0.00 | 0.06 | 0.00 | 91 | 1009.1 |
| 20260505015906 | 55 | 45 | 0.0 | 0.0 | 0.00 | 0.06 | 0.00 | 91 | 1009.1 |
| 20260505015407 | 55 | 45 | 0.0 | 3.0 | 0.00 | 0.06 | 0.00 | 91 | 1009.1 |
| 20260505014907 | 55 | 70 | 1.0 | 2.0 | 0.00 | 0.06 | 0.00 | 91 | 1009.1 |
| 20260505014406 | 55 | 55 | 0.0 | 2.0 | 0.00 | 0.06 | 0.00 | 91 | 1009.1 |
| 20260505013406 | 55 | 26 | 0.0 | 1.0 | 0.00 | 0.06 | 0.00 | 91 | 1009.1 |
| 20260505012906 | 55 | 21 | 0.0 | 2.0 | 0.00 | 0.06 | 0.00 | 91 | 1009.2 |
| 20260505012406 | 55 | 46 | 0.0 | 0.0 | 0.00 | 0.06 | 0.00 | 92 | 1009.2 |
| 20260505011406 | 56 | 5 | 0.0 | 0.0 | 0.00 | 0.06 | 0.00 | 92 | 1009.2 |
| 20260505010906 | 56 | 0 | 0.0 | 0.0 | 0.00 | 0.06 | 0.00 | 92 | 1009.2 |
| 20260505010406 | 56 | 355 | 0.0 | 0.0 | 0.00 | 0.06 | 0.00 | 92 | 1009.3 |
| 20260505005906 | 55 | 50 | 0.0 | 0.0 | 0.00 | 0.06 | 0.00 | 92 | 1009.3 |
| 20260505005406 | 55 | 53 | 0.0 | 0.0 | 0.00 | 0.06 | 0.00 | 92 | 1009.3 |
| 20260505004906 | 55 | 62 | 0.0 | 0.0 | 0.00 | 0.06 | 0.00 | 92 | 1009.3 |
| 20260505004406 | 55 | 58 | 0.0 | 0.0 | 0.00 | 0.06 | 0.00 | 92 | 1009.3 |
| 20260505003906 | 55 | 58 | 0.0 | 0.0 | 0.00 | 0.06 | 0.00 | 92 | 1009.3 |
| 20260505003407 | 55 | 58 | 0.0 | 0.0 | 0.00 | 0.06 | 0.00 | 92 | 1009.4 |
| 20260505002906 | 55 | 58 | 0.0 | 0.0 | 0.00 | 0.06 | 0.00 | 92 | 1009.4 |
| 20260505002406 | 55 | 58 | 0.0 | 0.0 | 0.00 | 0.06 | 0.00 | 92 | 1009.4 |
| 20260505001906 | 55 | 58 | 0.0 | 0.0 | 0.00 | 0.06 | 0.00 | 92 | 1009.5 |
| 20260505001406 | 55 | 58 | 0.0 | 0.0 | 0.00 | 0.06 | 0.00 | 92 | 1009.6 |
| 20260505000906 | 55 | 58 | 0.0 | 0.0 | 0.00 | 0.06 | 0.00 | 92 | 1009.7 |
| 20260505000406 | 55 | 58 | 0.0 | 0.0 | 0.00 | 0.06 | 0.00 | 92 | 1009.8 |
| 20260504235906 | 55 | 58 | 0.0 | 0.0 | 0.00 | 0.06 | 0.00 | 92 | 1009.8 |
| 20260504235406 | 54 | 57 | 0.0 | 0.0 | 0.00 | 0.06 | 0.00 | 92 | 1009.8 |
| 20260504234906 | 54 | 57 | 0.0 | 0.0 | 0.00 | 0.06 | 0.00 | 92 | 1009.8 |
| 20260504233406 | 54 | 57 | 0.0 | 0.0 | 0.00 | 0.06 | 0.00 | 92 | 1009.9 |
| 20260504232906 | 54 | 57 | 0.0 | 0.0 | 0.00 | 0.06 | 0.00 | 92 | 1009.9 |
| 20260504232406 | 54 | 57 | 0.0 | 0.0 | 0.00 | 0.06 | 0.00 | 92 | 1009.9 |
| 20260504231906 | 54 | 57 | 0.0 | 0.0 | 0.00 | 0.06 | 0.00 | 92 | 1010.0 |
| 20260504231406 | 54 | 57 | 0.0 | 0.0 | 0.00 | 0.06 | 0.00 | 92 | 1010.0 |
| 20260504230405 | 54 | 57 | 0.0 | 0.0 | 0.00 | 0.06 | 0.00 | 92 | 1010.1 |
| 20260504225407 | 54 | 57 | 0.0 | 0.0 | 0.00 | 0.06 | 0.00 | 92 | 1010.2 |
| 20260504224906 | 54 | 57 | 0.0 | 0.0 | 0.00 | 0.06 | 0.00 | 92 | 1010.2 |
| 20260504224406 | 54 | 57 | 0.0 | 0.0 | 0.00 | 0.06 | 0.00 | 91 | 1010.2 |
| 20260504223906 | 54 | 57 | 0.0 | 0.0 | 0.00 | 0.06 | 0.00 | 91 | 1010.2 |
| 20260504223406 | 54 | 57 | 0.0 | 0.0 | 0.00 | 0.06 | 0.00 | 91 | 1010.2 |
| 20260504222906 | 55 | 57 | 0.0 | 0.0 | 0.00 | 0.06 | 0.00 | 91 | 1010.3 |
| 20260504222406 | 55 | 57 | 0.0 | 0.0 | 0.00 | 0.06 | 0.00 | 91 | 1010.4 |
| 20260504221406 | 55 | 57 | 0.0 | 0.0 | 0.00 | 0.06 | 0.00 | 91 | 1010.3 |
| 20260504220906 | 55 | 57 | 0.0 | 0.0 | 0.00 | 0.06 | 0.00 | 91 | 1010.3 |
| 20260504220406 | 55 | 57 | 0.0 | 0.0 | 0.00 | 0.06 | 0.00 | 91 | 1010.3 |
| 20260504215906 | 55 | 57 | 0.0 | 0.0 | 0.00 | 0.06 | 0.06 | 91 | 1010.4 |
| 20260504214406 | 56 | 57 | 0.0 | 0.0 | 0.00 | 0.15 | 0.06 | 91 | 1010.5 |
| 20260504213906 | 56 | 57 | 0.0 | 0.0 | 0.00 | 0.18 | 0.06 | 91 | 1010.6 |
| 20260504213407 | 56 | 57 | 0.0 | 0.0 | 0.00 | 0.19 | 0.06 | 91 | 1010.6 |
| 20260504212906 | 56 | 57 | 0.0 | 0.0 | 0.00 | 0.19 | 0.06 | 91 | 1010.7 |
| 20260504212406 | 56 | 57 | 0.0 | 0.0 | 0.00 | 0.19 | 0.06 | 91 | 1010.7 |
| 20260504211906 | 57 | 80 | 0.0 | 0.0 | 0.00 | 0.20 | 0.06 | 91 | 1010.8 |
| 20260504211406 | 57 | 88 | 0.0 | 0.0 | 0.00 | 0.20 | 0.06 | 91 | 1010.8 |
| 20260504210905 | 57 | 87 | 0.0 | 0.0 | 0.00 | 0.21 | 0.06 | 91 | 1010.8 |
| 20260504205906 | 57 | 67 | 0.0 | 0.0 | 0.00 | 0.24 | 0.06 | 91 | 1010.9 |
| 20260504205406 | 57 | 67 | 0.0 | 0.0 | 0.00 | 0.24 | 0.06 | 91 | 1010.9 |
| 20260504204406 | 57 | 53 | 0.0 | 0.0 | 0.00 | 0.25 | 0.06 | 91 | 1011.0 |
| 20260504203906 | 57 | 53 | 0.0 | 0.0 | 0.00 | 0.26 | 0.06 | 91 | 1011.0 |
| 20260504203406 | 57 | 53 | 0.0 | 0.0 | 0.00 | 0.27 | 0.06 | 91 | 1011.0 |
| 20260504202907 | 57 | 53 | 0.0 | 0.0 | 0.00 | 0.28 | 0.06 | 91 | 1011.0 |
| 20260504201406 | 57 | 53 | 0.0 | 0.0 | 0.00 | 0.31 | 0.06 | 91 | 1010.9 |
| 20260504200906 | 57 | 53 | 0.0 | 0.0 | 0.00 | 0.31 | 0.06 | 91 | 1010.9 |
| 20260504200406 | 57 | 53 | 0.0 | 0.0 | 0.00 | 0.32 | 0.06 | 91 | 1010.9 |
| 20260504194906 | 58 | 53 | 0.0 | 0.0 | 0.00 | 0.34 | 0.06 | 91 | 1010.7 |
| 20260504194406 | 58 | 53 | 0.0 | 0.0 | 0.00 | 0.34 | 0.06 | 91 | 1010.6 |
| 20260504193907 | 58 | 53 | 0.0 | 0.0 | 0.00 | 0.34 | 0.06 | 91 | 1010.6 |
| 20260504193406 | 58 | 53 | 0.0 | 0.0 | 0.00 | 0.34 | 0.06 | 91 | 1010.5 |
| 20260504192906 | 58 | 53 | 0.0 | 0.0 | 0.00 | 0.35 | 0.06 | 91 | 1010.5 |
| 20260504192406 | 58 | 53 | 0.0 | 0.0 | 0.00 | 0.35 | 0.06 | 91 | 1010.5 |
| 20260504191906 | 58 | 53 | 0.0 | 0.0 | 0.00 | 0.36 | 0.06 | 91 | 1010.5 |
| 20260504190906 | 58 | 53 | 0.0 | 0.0 | 0.00 | 0.39 | 0.06 | 91 | 1010.4 |
| 20260504185906 | 58 | 53 | 0.0 | 0.0 | 0.00 | 0.40 | 0.06 | 90 | 1010.4 |
| 20260504185406 | 58 | 52 | 0.0 | 0.0 | 0.00 | 0.41 | 0.06 | 90 | 1010.4 |
| 20260504184906 | 58 | 42 | 0.0 | 0.0 | 0.00 | 0.42 | 0.06 | 91 | 1010.4 |
| 20260504184405 | 59 | 40 | 0.0 | 0.0 | 0.00 | 0.43 | 0.06 | 91 | 1010.4 |
| 20260504183406 | 59 | 57 | 0.0 | 0.0 | 0.00 | 0.44 | 0.06 | 91 | 1010.2 |
| 20260504182905 | 59 | 104 | 0.0 | 0.0 | 0.00 | 0.44 | 0.06 | 90 | 1010.3 |
| 20260504182406 | 59 | 54 | 0.0 | 0.0 | 0.00 | 0.44 | 0.06 | 90 | 1010.2 |
| 20260504181405 | 59 | 99 | 0.0 | 0.0 | 0.00 | 0.46 | 0.06 | 90 | 1010.1 |
| 20260504180906 | 59 | 99 | 0.0 | 0.0 | 0.00 | 0.46 | 0.06 | 90 | 1010.1 |
| 20260504180406 | 59 | 100 | 0.0 | 0.0 | 0.00 | 0.48 | 0.06 | 90 | 1010.2 |
| 20260504175906 | 59 | 94 | 0.0 | 0.0 | 0.00 | 0.48 | 0.06 | 90 | 1010.2 |
| 20260504175407 | 59 | 97 | 0.0 | 0.0 | 0.00 | 0.50 | 0.06 | 90 | 1010.3 |
| 20260504174905 | 59 | 115 | 0.0 | 0.0 | 0.00 | 0.50 | 0.06 | 90 | 1010.3 |
| 20260504174406 | 59 | 125 | 0.0 | 0.0 | 0.00 | 0.52 | 0.06 | 90 | 1010.3 |
| 20260504173906 | 59 | 153 | 0.0 | 2.0 | 0.00 | 0.54 | 0.06 | 90 | 1010.3 |
| 20260504173406 | 59 | 110 | 1.0 | 3.0 | 0.00 | 0.57 | 0.06 | 90 | 1010.3 |
| 20260504172406 | 59 | 106 | 2.0 | 5.0 | 0.00 | 0.61 | 0.06 | 89 | 1010.4 |
| 20260504171906 | 59 | 145 | 1.0 | 2.0 | 0.00 | 0.61 | 0.06 | 89 | 1010.4 |
| 20260504170906 | 60 | 109 | 1.0 | 3.0 | 0.00 | 0.61 | 0.06 | 89 | 1010.4 |
| 20260504170405 | 60 | 98 | 2.0 | 3.0 | 0.00 | 0.61 | 0.06 | 89 | 1010.5 |
| 20260504150905 | 61 | 110 | 2.0 | 3.0 | 0.05 | 0.60 | 0.06 | 90 | 1010.7 |
| 20260504150406 | 61 | 121 | 0.0 | 0.0 | 0.05 | 0.60 | 0.06 | 90 | 1010.8 |
| 20260504140906 | 63 | 99 | 2.0 | 5.0 | 0.00 | 0.60 | 0.01 | 82 | 1011.3 |
| 20260504140405 | 63 | 120 | 2.0 | 5.0 | 0.00 | 0.60 | 0.01 | 82 | 1011.2 |
| 20260504130406 | 64 | 94 | 0.0 | 3.0 | 0.00 | 0.60 | 0.01 | 81 | 1011.3 |
| 20260504110406 | 62 | 153 | 1.0 | 3.0 | 0.00 | 0.62 | 0.01 | 88 | 1012.2 |
| 20260504100406 | 59 | 150 | 2.0 | 5.0 | 0.00 | 0.68 | 0.01 | 92 | 1012.4 |